Vorticity
46 4 6 -40 15 22 14 5 5 5 4 4 3 4 11 16 -2 6 9 15 10 1
15 32 29 -6 16 2 14 21 3 4 5 6 11 21 15 -12 10 3 2 3 12 7
-1 30 40 56 -47 37 6 17 15 3 4 14 24 34 7 16 10 4 5 7 8 9
20 25 30 48 20 -37 13 13 13 1 -1 10 -32 84 -1 4 4 2 3 12 4 5
-23 -3 3 19 90 0 25 17 15 20 20 -82 21 8 -4 -9 0 5 10 14 0 4
42 -15 47 -8 94 2 -8 92 15 9 -27 -72 -1 3 8 3 9 10 5 -0 5 7
24 45 -31 18 2 24 -31 37 -5 15 -7 -16 13 11 5 9 10 8 2 5 9 7
5 23 17 33 15 20 30 -0 12 11 10 7 5 8 9 3 -7 -10 3 14 2 3
9 29 12 18 5 19 24 14 13 10 8 5 4 0 3 5 14 12 11 12 1 2
5 12 8 18 40 28 15 24 -8 19 5 2 17 12 3 7 9 13 14 15 16 15
8 11 10 7 5 10 14 16 15 19 15 16 11 11 13 12 12 12 10 9 13 17
10 11 10 9 15 7 7 10 13 14 14 20 22 19 18 16 11 9 13 11 7 12
8 8 8 7 8 8 9 8 8 6 10 11 12 18 17 22 26 24 20 21 15 13
9 9 9 8 8 7 7 8 8 7 7 9 8 11 11 11 13 14 16 16 15 16
Height
2978 2979 2984 2976 2995 3003 3015 3027 3038 3050 3057 3061 3063 3068 3074 3077 3082 3083 3088 3090 3091 3091
2966 2966 2964 2977 2986 2992 3001 3014 3026 3039 3048 3052 3056 3061 3067 3069 3072 3072 3079 3083 3082 3083
2958 2962 2966 2965 2962 2977 2980 2992 3012 3027 3034 3038 3048 3052 3055 3063 3066 3063 3069 3073 3074 3075
2955 2961 2969 2968 2972 2960 2953 2974 3001 3011 3018 3028 3032 3017 3047 3053 3057 3053 3059 3064 3066 3066
2948 2959 2966 2976 2959 2971 2962 2978 2993 3003 3009 3014 3012 3034 3038 3044 3047 3045 3050 3053 3055 3057
2950 2955 2959 2967 2956 2951 2964 2957 2978 2991 2996 3002 3008 3019 3026 3029 3035 3038 3040 3042 3044 3047
2949 2949 2956 2945 2944 2947 2960 2947 2970 2983 2991 2995 3004 3010 3017 3021 3028 3030 3031 3031 3033 3036
2957 2954 2958 2959 2957 2955 2961 2963 2964 2971 2984 2995 3002 3004 3009 3013 3019 3019 3021 3021 3022 3025
2958 2960 2960 2960 2962 2959 2964 2970 2967 2971 2980 2988 2994 2998 3003 3006 3005 3006 3007 3007 3009 3011
2960 2963 2962 2962 2956 2956 2965 2969 2971 2971 2975 2979 2984 2989 2992 2990 2991 2992 2993 2993 2994 2996
2974 2974 2971 2968 2969 2971 2973 2969 2971 2968 2967 2973 2976 2979 2981 2977 2979 2980 2982 2982 2981 2982
2975 2974 2970 2968 2970 2970 2970 2966 2966 2966 2967 2970 2971 2970 2971 2969 2968 2969 2972 2971 2970 2969
2974 2970 2970 2969 2968 2968 2965 2966 2965 2966 2964 2966 2963 2964 2958 2960 2961 2964 2963 2961 2958 2955
2974 2973 2972 2970 2967 2967 2965 2961 2962 2962 2960 2956 2957 2952 2953 2953 2953 2952 2950 2949 2946 2942